"Zeitpunkt";"timestamp";"D0";"V0";"V0_max";"T0";"F0";"G0";"S0";"R0";"M0";"T1";"L0";"L0_nn"
"04.04.2024, 00:00";"1712188801";"191";"7";"13";"103";"75";"7";"0";"0";"0";"92";"0";"9916"
"04.04.2024, 00:10";"1712189401";"188";"6";"12";"101";"75";"7";"0";"0";"0";"90";"0";"9916"
"04.04.2024, 00:20";"1712190001";"190";"7";"13";"100";"75";"7";"0";"0";"0";"90";"0";"9916"
"04.04.2024, 00:30";"1712190601";"190";"7";"13";"100";"76";"7";"0";"0";"0";"89";"0";"9916"
"04.04.2024, 00:40";"1712191201";"188";"6";"12";"98";"76";"7";"0";"0";"0";"87";"0";"9916"
"04.04.2024, 00:50";"1712191801";"186";"6";"11";"97";"77";"7";"0";"0";"0";"85";"0";"9916"
"04.04.2024, 01:00";"1712192401";"183";"5";"8";"97";"77";"8";"0";"0";"0";"87";"0";"9912"
"04.04.2024, 01:10";"1712193001";"179";"4";"7";"96";"78";"8";"0";"0";"0";"88";"0";"9912"
"04.04.2024, 01:20";"1712193601";"174";"4";"7";"97";"78";"8";"0";"0";"0";"90";"0";"9912"
"04.04.2024, 01:30";"1712194201";"171";"5";"8";"97";"77";"8";"0";"0";"0";"89";"0";"9912"
"04.04.2024, 01:40";"1712194801";"167";"5";"8";"97";"77";"8";"0";"0";"0";"88";"0";"9912"
"04.04.2024, 01:50";"1712195401";"162";"4";"8";"97";"77";"8";"0";"0";"0";"92";"0";"9912"
"04.04.2024, 02:00";"1712196001";"166";"4";"8";"98";"77";"8";"0";"0";"0";"93";"0";"9905"
"04.04.2024, 02:10";"1712196601";"164";"5";"10";"99";"76";"8";"0";"0";"0";"94";"0";"9905"
"04.04.2024, 02:20";"1712197201";"165";"5";"9";"101";"76";"8";"0";"0";"0";"96";"0";"9905"
"04.04.2024, 02:30";"1712197801";"164";"5";"9";"102";"75";"8";"0";"0";"0";"97";"0";"9905"
"04.04.2024, 02:40";"1712198401";"161";"5";"9";"104";"75";"8";"0";"0";"0";"98";"0";"9905"
"04.04.2024, 02:50";"1712199001";"170";"4";"9";"105";"76";"8";"0";"2";"0";"95";"0";"9905"
"04.04.2024, 03:00";"1712199601";"168";"5";"10";"105";"76";"8";"0";"10";"0";"93";"0";"9898"
"04.04.2024, 03:10";"1712200201";"167";"6";"12";"105";"78";"8";"0";"10";"0";"90";"0";"9898"
"04.04.2024, 03:20";"1712200801";"171";"6";"10";"104";"80";"8";"0";"10";"0";"89";"0";"9898"
"04.04.2024, 03:30";"1712201401";"171";"5";"11";"102";"83";"8";"0";"10";"0";"88";"0";"9898"
"04.04.2024, 03:40";"1712202001";"166";"5";"11";"101";"85";"8";"0";"10";"0";"89";"0";"9898"
"04.04.2024, 03:50";"1712202601";"165";"5";"10";"100";"87";"8";"0";"10";"0";"90";"0";"9898"
"04.04.2024, 04:00";"1712203201";"160";"6";"11";"99";"88";"8";"0";"10";"0";"91";"0";"9888"
"04.04.2024, 04:10";"1712203801";"159";"6";"11";"99";"89";"8";"0";"10";"0";"91";"0";"9888"
"04.04.2024, 04:20";"1712204401";"160";"5";"10";"99";"90";"8";"0";"10";"0";"92";"0";"9888"
"04.04.2024, 04:30";"1712205001";"160";"6";"11";"101";"90";"8";"0";"10";"0";"94";"0";"9888"
"04.04.2024, 04:40";"1712205602";"159";"7";"14";"102";"89";"8";"0";"10";"0";"96";"0";"9888"
"04.04.2024, 04:50";"1712206201";"163";"6";"11";"104";"89";"8";"0";"10";"0";"97";"0";"9888"
"04.04.2024, 05:00";"1712206801";"168";"6";"11";"106";"89";"8";"0";"10";"0";"99";"0";"9883"
"04.04.2024, 05:10";"1712207401";"166";"6";"12";"108";"88";"8";"0";"10";"0";"101";"0";"9883"
"04.04.2024, 05:20";"1712208001";"168";"6";"13";"110";"88";"8";"0";"10";"0";"101";"0";"9883"
"04.04.2024, 05:30";"1712208601";"171";"6";"13";"111";"88";"8";"0";"10";"0";"102";"0";"9883"
"04.04.2024, 05:40";"1712209201";"173";"5";"10";"111";"89";"8";"0";"10";"0";"103";"0";"9883"
"04.04.2024, 05:50";"1712209801";"172";"6";"11";"111";"89";"8";"0";"10";"0";"104";"0";"9883"
"04.04.2024, 06:00";"1712210401";"174";"6";"11";"112";"90";"8";"0";"10";"0";"104";"0";"9878"
"04.04.2024, 06:10";"1712211001";"172";"6";"14";"112";"90";"8";"0";"10";"0";"105";"0";"9878"
"04.04.2024, 06:20";"1712211601";"173";"6";"15";"112";"91";"9";"0";"10";"0";"106";"0";"9878"
"04.04.2024, 06:30";"1712212201";"177";"6";"13";"112";"91";"8";"0";"10";"0";"106";"0";"9878"
"04.04.2024, 06:40";"1712212801";"169";"6";"11";"113";"91";"8";"0";"10";"0";"107";"0";"9878"
"04.04.2024, 06:50";"1712213401";"173";"6";"15";"114";"91";"12";"0";"10";"0";"109";"0";"9878"
"04.04.2024, 07:00";"1712214001";"171";"6";"13";"115";"91";"16";"0";"10";"0";"110";"0";"9871"
"04.04.2024, 07:10";"1712214601";"178";"6";"11";"116";"92";"28";"0";"10";"0";"111";"0";"9871"
"04.04.2024, 07:20";"1712215201";"177";"6";"13";"116";"92";"40";"0";"10";"0";"113";"0";"9871"
"04.04.2024, 07:30";"1712215801";"167";"6";"13";"117";"92";"47";"0";"10";"0";"113";"0";"9871"
"04.04.2024, 07:40";"1712216401";"174";"6";"12";"117";"92";"43";"0";"10";"0";"113";"0";"9871"
"04.04.2024, 07:50";"1712217001";"183";"7";"12";"117";"92";"24";"0";"10";"0";"112";"0";"9871"
"04.04.2024, 08:00";"1712217601";"188";"8";"14";"117";"91";"13";"0";"10";"0";"111";"0";"9871"
"04.04.2024, 08:10";"1712218201";"208";"8";"18";"119";"90";"20";"0";"10";"0";"112";"0";"9871"
"04.04.2024, 08:20";"1712218801";"201";"9";"17";"119";"90";"16";"0";"10";"0";"112";"0";"9871"
"04.04.2024, 08:30";"1712219401";"201";"8";"16";"119";"90";"18";"0";"10";"0";"112";"0";"9871"
"04.04.2024, 08:40";"1712220001";"190";"8";"15";"119";"91";"27";"0";"10";"0";"114";"0";"9871"
"04.04.2024, 08:50";"1712220601";"191";"7";"13";"119";"91";"45";"0";"10";"0";"116";"0";"9871"
"04.04.2024, 09:00";"1712221201";"197";"8";"16";"120";"91";"59";"0";"10";"0";"119";"0";"9878"
"04.04.2024, 09:10";"1712221801";"189";"7";"13";"121";"91";"107";"0";"10";"0";"122";"0";"9878"
"04.04.2024, 09:20";"1712222401";"194";"8";"15";"123";"90";"168";"0";"10";"0";"122";"0";"9878"
"04.04.2024, 09:30";"1712223001";"195";"9";"18";"124";"89";"179";"0";"10";"0";"121";"0";"9878"
"04.04.2024, 09:40";"1712223601";"199";"9";"23";"124";"89";"135";"0";"10";"0";"129";"0";"9878"
"04.04.2024, 09:50";"1712224201";"195";"9";"16";"127";"88";"733";"6";"10";"0";"128";"0";"9878"
"04.04.2024, 10:00";"1712224801";"191";"9";"19";"128";"85";"403";"2";"10";"0";"124";"0";"9883"
"04.04.2024, 10:10";"1712225401";"199";"10";"24";"129";"85";"268";"0";"10";"0";"126";"0";"9883"
"04.04.2024, 10:20";"1712226001";"194";"9";"20";"130";"84";"170";"0";"8";"0";"126";"0";"9883"
"04.04.2024, 10:30";"1712226601";"195";"9";"15";"131";"82";"193";"0";"0";"0";"124";"0";"9883"
"04.04.2024, 10:40";"1712227201";"195";"10";"18";"132";"79";"178";"0";"0";"0";"124";"0";"9883"
"04.04.2024, 10:50";"1712227801";"199";"10";"28";"134";"78";"223";"0";"0";"0";"126";"0";"9883"
"04.04.2024, 11:00";"1712228401";"200";"12";"22";"136";"78";"291";"2";"0";"0";"128";"0";"9885"
"04.04.2024, 11:10";"1712229001";"200";"10";"21";"138";"76";"248";"0";"0";"0";"134";"0";"9885"
"04.04.2024, 11:20";"1712229601";"203";"10";"18";"138";"74";"371";"3";"0";"0";"138";"0";"9885"
"04.04.2024, 11:30";"1712230201";"195";"11";"23";"139";"73";"205";"0";"0";"0";"136";"0";"9885"
"04.04.2024, 11:40";"1712230801";"201";"10";"21";"140";"73";"141";"0";"0";"0";"139";"0";"9885"
"04.04.2024, 11:50";"1712231401";"202";"9";"19";"140";"72";"154";"0";"0";"0";"140";"0";"9885"
"04.04.2024, 12:00";"1712232001";"203";"11";"22";"140";"70";"191";"0";"0";"0";"138";"0";"9890"
"04.04.2024, 12:10";"1712232601";"202";"10";"21";"140";"70";"172";"0";"0";"0";"142";"0";"9890"
"04.04.2024, 12:20";"1712233201";"199";"9";"16";"141";"68";"393";"5";"0";"0";"145";"0";"9890"
"04.04.2024, 12:30";"1712233801";"195";"12";"26";"141";"67";"285";"1";"0";"0";"143";"0";"9890"
"04.04.2024, 12:40";"1712234401";"201";"12";"22";"141";"65";"357";"1";"0";"0";"151";"0";"9890"
"04.04.2024, 12:50";"1712235001";"194";"12";"24";"143";"66";"848";"9";"0";"0";"153";"0";"9890"
"04.04.2024, 13:00";"1712235601";"196";"12";"23";"142";"66";"2,147";"10";"0";"0";"141";"0";"9894"
"04.04.2024, 13:10";"1712236201";"191";"11";"20";"144";"67";"915";"10";"0";"0";"149";"0";"9894"
"04.04.2024, 13:20";"1712236801";"187";"9";"19";"147";"65";"2,643";"10";"0";"0";"147";"0";"9894"
"04.04.2024, 13:30";"1712237401";"189";"12";"26";"148";"65";"2,724";"10";"0";"0";"152";"0";"9894"
"04.04.2024, 13:40";"1712238001";"196";"10";"21";"150";"66";"552";"7";"0";"0";"154";"0";"9894"
"04.04.2024, 13:50";"1712238601";"205";"9";"19";"149";"66";"387";"4";"0";"0";"141";"0";"9894"
"04.04.2024, 14:00";"1712239201";"194";"11";"22";"144";"73";"85";"0";"3";"0";"116";"0";"9894"
"04.04.2024, 14:10";"1712239801";"207";"8";"20";"136";"76";"20";"0";"10";"0";"117";"0";"9894"
"04.04.2024, 14:20";"1712240401";"212";"11";"24";"132";"78";"172";"0";"10";"0";"122";"0";"9894"
"04.04.2024, 14:30";"1712241001";"199";"8";"18";"129";"79";"196";"0";"10";"0";"113";"0";"9894"
"04.04.2024, 14:40";"1712241601";"205";"8";"17";"124";"79";"62";"0";"10";"0";"115";"0";"9894"
"04.04.2024, 14:50";"1712242201";"205";"8";"17";"122";"82";"89";"0";"10";"0";"112";"0";"9894"
"04.04.2024, 15:00";"1712242802";"207";"7";"13";"121";"82";"128";"0";"10";"0";"112";"0";"9906"
"04.04.2024, 15:10";"1712243401";"197";"6";"14";"122";"83";"468";"5";"10";"0";"119";"0";"9906"
"04.04.2024, 15:20";"1712244001";"202";"6";"14";"124";"82";"366";"2";"10";"0";"117";"0";"9906"
"04.04.2024, 15:30";"1712244601";"201";"7";"14";"127";"81";"1,788";"10";"10";"0";"117";"0";"9906"
"04.04.2024, 15:40";"1712245201";"199";"6";"13";"129";"81";"2,042";"8";"10";"0";"120";"0";"9906"
"04.04.2024, 15:50";"1712245801";"199";"7";"14";"129";"81";"115";"0";"10";"0";"121";"0";"9906"
"04.04.2024, 16:00";"1712246401";"197";"8";"13";"129";"82";"409";"1";"9";"0";"121";"0";"9908"
"04.04.2024, 16:10";"1712247001";"183";"8";"15";"129";"83";"2,532";"10";"0";"0";"118";"0";"9908"
"04.04.2024, 16:20";"1712247601";"189";"7";"13";"129";"82";"1,043";"8";"0";"0";"122";"0";"9908"
"04.04.2024, 16:30";"1712248201";"196";"7";"13";"131";"80";"1,132";"10";"0";"0";"121";"0";"9908"
"04.04.2024, 16:40";"1712248801";"191";"6";"11";"133";"82";"866";"10";"0";"0";"122";"0";"9908"
"04.04.2024, 16:50";"1712249401";"194";"5";"10";"134";"81";"1,417";"10";"0";"0";"123";"0";"9908"
"04.04.2024, 17:00";"1712250001";"191";"6";"10";"133";"82";"1,543";"10";"0";"0";"120";"0";"9911"
"04.04.2024, 17:10";"1712250601";"192";"6";"10";"133";"82";"236";"1";"0";"0";"125";"0";"9911"
"04.04.2024, 17:20";"1712251201";"186";"6";"11";"133";"83";"93";"0";"0";"0";"125";"0";"9911"
"04.04.2024, 17:30";"1712251801";"189";"6";"10";"132";"83";"102";"0";"0";"0";"125";"0";"9911"
"04.04.2024, 17:40";"1712252401";"188";"6";"11";"132";"83";"64";"0";"0";"0";"123";"0";"9911"
"04.04.2024, 17:50";"1712253001";"188";"5";"10";"131";"82";"14";"0";"0";"0";"124";"0";"9911"
"04.04.2024, 18:00";"1712253601";"187";"6";"10";"131";"82";"8";"0";"0";"0";"123";"0";"9920"
"04.04.2024, 18:10";"1712254201";"195";"7";"15";"132";"81";"7";"0";"0";"0";"124";"0";"9920"
"04.04.2024, 18:20";"1712254801";"191";"7";"13";"132";"77";"7";"0";"0";"0";"125";"0";"9920"
"04.04.2024, 18:30";"1712255401";"204";"6";"15";"134";"75";"7";"0";"0";"0";"125";"0";"9920"
"04.04.2024, 18:40";"1712256001";"207";"5";"10";"136";"72";"7";"0";"0";"0";"128";"0";"9920"
"04.04.2024, 18:50";"1712256601";"213";"7";"13";"136";"74";"7";"0";"0";"0";"126";"0";"9920"
"04.04.2024, 19:00";"1712257201";"208";"6";"14";"138";"71";"7";"0";"0";"0";"129";"0";"9930"
"04.04.2024, 19:10";"1712257801";"209";"7";"15";"139";"70";"7";"0";"0";"0";"129";"0";"9930"
"04.04.2024, 19:20";"1712258401";"206";"6";"14";"139";"71";"7";"0";"0";"0";"128";"0";"9930"
"04.04.2024, 19:30";"1712259001";"208";"5";"12";"139";"71";"7";"0";"0";"0";"125";"0";"9930"
"04.04.2024, 19:40";"1712259601";"204";"5";"10";"136";"74";"7";"0";"0";"0";"124";"0";"9930"
"04.04.2024, 19:50";"1712260201";"190";"4";"7";"133";"76";"7";"0";"0";"0";"118";"0";"9930"
"04.04.2024, 20:00";"1712260801";"186";"5";"8";"129";"77";"8";"0";"0";"0";"115";"0";"9939"
"04.04.2024, 20:10";"1712261402";"188";"5";"8";"127";"77";"8";"0";"0";"0";"113";"0";"9939"
"04.04.2024, 20:20";"1712262001";"194";"5";"12";"126";"75";"7";"0";"0";"0";"113";"0";"9939"
"04.04.2024, 20:30";"1712262601";"193";"6";"10";"125";"73";"7";"0";"0";"0";"113";"0";"9939"
"04.04.2024, 20:40";"1712263201";"191";"6";"9";"122";"76";"7";"0";"0";"0";"107";"0";"9939"
"04.04.2024, 20:50";"1712263801";"186";"5";"8";"120";"76";"8";"0";"0";"0";"106";"0";"9939"
"04.04.2024, 21:00";"1712264401";"183";"5";"10";"118";"76";"8";"0";"0";"0";"107";"0";"9941"
"04.04.2024, 21:10";"1712265001";"176";"5";"8";"117";"76";"8";"0";"0";"0";"106";"0";"9941"
"04.04.2024, 21:20";"1712265601";"176";"4";"7";"114";"78";"8";"0";"0";"0";"102";"0";"9941"
"04.04.2024, 21:30";"1712266201";"177";"4";"7";"113";"78";"8";"0";"0";"0";"104";"0";"9941"
"04.04.2024, 21:40";"1712266801";"179";"4";"7";"113";"77";"8";"0";"0";"0";"103";"0";"9941"
"04.04.2024, 21:50";"1712267401";"176";"4";"7";"113";"79";"8";"0";"0";"0";"102";"0";"9941"
"04.04.2024, 22:00";"1712268001";"178";"4";"6";"111";"79";"8";"0";"0";"0";"101";"0";"9947"
"04.04.2024, 22:10";"1712268601";"176";"5";"9";"113";"77";"8";"0";"0";"0";"106";"0";"9947"
"04.04.2024, 22:20";"1712269201";"177";"5";"8";"113";"77";"8";"0";"0";"0";"105";"0";"9947"
"04.04.2024, 22:30";"1712269801";"178";"6";"9";"115";"75";"8";"0";"0";"0";"106";"0";"9947"
"04.04.2024, 22:40";"1712270401";"173";"5";"8";"115";"75";"8";"0";"0";"0";"107";"0";"9947"
"04.04.2024, 22:50";"1712271001";"172";"5";"9";"115";"75";"8";"0";"0";"0";"105";"0";"9947"
"04.04.2024, 23:00";"1712271601";"172";"4";"7";"114";"77";"8";"0";"0";"0";"104";"0";"9947"
"04.04.2024, 23:10";"1712272201";"170";"4";"8";"114";"76";"8";"0";"0";"0";"108";"0";"9947"
"04.04.2024, 23:20";"1712272801";"170";"5";"9";"115";"76";"8";"0";"0";"0";"111";"0";"9947"
"04.04.2024, 23:30";"1712273401";"175";"5";"9";"116";"76";"8";"0";"0";"0";"111";"0";"9947"
"04.04.2024, 23:40";"1712274001";"168";"6";"10";"117";"77";"8";"0";"1";"0";"111";"0";"9947"
"04.04.2024, 23:50";"1712274601";"170";"5";"9";"118";"79";"8";"0";"0";"0";"111";"0";"9947"
"05.04.2024, 00:00";"1712275201";"168";"5";"9";"119";"80";"8";"0";"0";"0";"114";"0";"9947"
"05.04.2024, 00:10";"1712275801";"174";"5";"9";"119";"81";"8";"0";"0";"0";"114";"0";"9947"
"05.04.2024, 00:20";"1712276401";"168";"5";"8";"120";"81";"8";"0";"0";"0";"114";"0";"9947"
"05.04.2024, 00:30";"1712277001";"165";"5";"7";"120";"81";"8";"0";"0";"0";"114";"0";"9947"
"05.04.2024, 00:40";"1712277601";"166";"5";"9";"120";"81";"8";"0";"2";"0";"113";"0";"9947"
"05.04.2024, 00:50";"1712278201";"162";"4";"7";"119";"82";"8";"0";"2";"0";"112";"0";"9947"
"05.04.2024, 01:00";"1712278801";"169";"4";"7";"119";"83";"8";"0";"0";"0";"111";"0";"9945"
"05.04.2024, 01:10";"1712279402";"168";"5";"8";"118";"83";"8";"0";"0";"0";"111";"0";"9945"
"05.04.2024, 01:20";"1712280001";"168";"5";"8";"117";"83";"8";"0";"0";"0";"110";"0";"9945"
"05.04.2024, 01:30";"1712280601";"164";"5";"8";"117";"83";"8";"0";"0";"0";"110";"0";"9945"
"05.04.2024, 01:40";"1712281201";"168";"4";"9";"117";"83";"8";"0";"0";"0";"112";"0";"9945"
"05.04.2024, 01:50";"1712281801";"176";"4";"6";"118";"83";"8";"0";"0";"0";"113";"0";"9945"
"05.04.2024, 02:00";"1712282401";"175";"4";"8";"118";"84";"8";"0";"0";"0";"113";"0";"9942"
"05.04.2024, 02:10";"1712283001";"177";"5";"9";"119";"83";"8";"0";"0";"0";"115";"0";"9942"
"05.04.2024, 02:20";"1712283601";"174";"5";"9";"120";"83";"8";"0";"0";"0";"115";"0";"9942"
"05.04.2024, 02:30";"1712284201";"171";"5";"9";"121";"83";"8";"0";"0";"0";"116";"0";"9942"
"05.04.2024, 02:40";"1712284801";"172";"6";"10";"122";"83";"8";"0";"0";"0";"114";"0";"9942"
"05.04.2024, 02:50";"1712285401";"179";"5";"10";"122";"83";"8";"0";"0";"0";"117";"0";"9942"
"05.04.2024, 03:00";"1712286001";"174";"5";"9";"123";"83";"8";"0";"0";"0";"119";"0";"9941"
"05.04.2024, 03:10";"1712286601";"172";"6";"14";"124";"83";"8";"0";"0";"0";"120";"0";"9941"
"05.04.2024, 03:20";"1712287201";"171";"6";"12";"125";"82";"8";"0";"0";"0";"119";"0";"9941"
"05.04.2024, 03:30";"1712287801";"176";"6";"12";"125";"82";"8";"0";"0";"0";"119";"0";"9941"
"05.04.2024, 03:40";"1712288401";"173";"5";"10";"125";"83";"8";"0";"0";"0";"119";"0";"9941"
"05.04.2024, 03:50";"1712289001";"174";"5";"9";"125";"83";"8";"0";"0";"0";"118";"0";"9941"
"05.04.2024, 04:00";"1712289601";"170";"6";"10";"125";"83";"8";"0";"0";"0";"119";"0";"9941"
"05.04.2024, 04:10";"1712290201";"175";"6";"10";"126";"84";"8";"0";"0";"0";"120";"0";"9941"
"05.04.2024, 04:20";"1712290801";"172";"5";"9";"126";"83";"8";"0";"0";"0";"121";"0";"9941"
"05.04.2024, 04:30";"1712291401";"170";"5";"9";"127";"83";"8";"0";"0";"0";"121";"0";"9941"
"05.04.2024, 04:40";"1712292001";"172";"5";"10";"127";"85";"8";"0";"6";"0";"117";"0";"9941"
"05.04.2024, 04:50";"1712292601";"166";"5";"9";"127";"86";"8";"0";"10";"0";"116";"0";"9941"
"05.04.2024, 05:00";"1712293201";"162";"5";"9";"126";"86";"8";"0";"10";"0";"115";"0";"9941"
"05.04.2024, 05:10";"1712293801";"145";"3";"7";"126";"87";"9";"0";"10";"0";"116";"0";"9941"
"05.04.2024, 05:20";"1712294401";"160";"5";"11";"126";"87";"8";"0";"10";"0";"116";"0";"9941"
"05.04.2024, 05:30";"1712295001";"164";"5";"10";"127";"87";"8";"0";"10";"0";"117";"0";"9941"
"05.04.2024, 05:40";"1712295601";"128";"4";"12";"126";"88";"9";"0";"10";"0";"116";"0";"9941"
"05.04.2024, 05:50";"1712296201";"184";"5";"10";"125";"88";"8";"0";"10";"0";"117";"0";"9941"
"05.04.2024, 06:00";"1712296801";"177";"4";"10";"125";"89";"11";"0";"10";"0";"119";"0";"9941"
"05.04.2024, 06:10";"1712297401";"168";"5";"10";"127";"88";"25";"0";"10";"0";"121";"0";"9941"
"05.04.2024, 06:20";"1712298001";"164";"5";"12";"129";"87";"41";"0";"10";"0";"123";"0";"9941"
"05.04.2024, 06:30";"1712298601";"147";"6";"13";"131";"86";"78";"0";"10";"0";"131";"0";"9941"
"05.04.2024, 06:40";"1712299201";"147";"5";"11";"134";"86";"400";"2";"10";"0";"131";"0";"9941"
"05.04.2024, 06:50";"1712299802";"151";"5";"10";"135";"84";"338";"0";"10";"0";"132";"0";"9941"
"05.04.2024, 07:00";"1712300401";"143";"6";"12";"137";"84";"490";"6";"10";"0";"136";"0";"9927"
"05.04.2024, 07:10";"1712301001";"138";"6";"17";"140";"83";"756";"10";"10";"0";"141";"0";"9927"
"05.04.2024, 07:20";"1712301601";"145";"5";"13";"142";"81";"744";"10";"10";"0";"142";"0";"9927"
"05.04.2024, 07:30";"1712302201";"143";"6";"13";"144";"81";"214";"0";"1";"0";"143";"0";"9927"
"05.04.2024, 07:40";"1712302801";"148";"7";"14";"145";"80";"163";"0";"0";"0";"145";"0";"9927"
"05.04.2024, 07:50";"1712303401";"145";"7";"14";"147";"80";"183";"0";"0";"0";"149";"0";"9927"
"05.04.2024, 08:00";"1712304001";"148";"6";"14";"150";"78";"389";"3";"0";"0";"154";"0";"9923"
"05.04.2024, 08:10";"1712304601";"154";"8";"16";"152";"77";"666";"7";"0";"0";"150";"0";"9923"
"05.04.2024, 08:20";"1712305201";"150";"7";"17";"151";"77";"144";"0";"0";"0";"144";"0";"9923"
"05.04.2024, 08:30";"1712305801";"151";"7";"17";"151";"77";"47";"0";"0";"0";"144";"0";"9923"
"05.04.2024, 08:40";"1712306401";"149";"7";"16";"150";"77";"54";"0";"3";"0";"143";"0";"9923"
"05.04.2024, 08:50";"1712307001";"148";"8";"18";"151";"77";"64";"0";"2";"0";"142";"0";"9923"
"05.04.2024, 09:00";"1712307601";"145";"8";"17";"152";"77";"55";"0";"0";"0";"147";"0";"9918"
"05.04.2024, 09:10";"1712308201";"148";"8";"20";"152";"76";"76";"0";"0";"0";"149";"0";"9918"
"05.04.2024, 09:20";"1712308801";"146";"8";"18";"153";"76";"104";"0";"0";"0";"150";"0";"9918"
"05.04.2024, 09:30";"1712309401";"150";"8";"21";"155";"74";"124";"0";"0";"0";"156";"0";"9918"
"05.04.2024, 09:40";"1712310001";"145";"9";"21";"158";"73";"209";"0";"0";"0";"159";"0";"9918"
"05.04.2024, 09:50";"1712310601";"149";"8";"18";"161";"72";"155";"0";"0";"0";"156";"0";"9918"
"05.04.2024, 10:00";"1712311201";"156";"10";"25";"159";"74";"114";"0";"1";"0";"141";"0";"9911"
"05.04.2024, 10:10";"1712311802";"165";"10";"21";"159";"74";"95";"0";"10";"0";"139";"0";"9911"
"05.04.2024, 10:20";"1712312401";"165";"10";"20";"159";"75";"78";"0";"10";"0";"149";"0";"9911"
"05.04.2024, 10:30";"1712313001";"174";"8";"17";"160";"74";"130";"0";"10";"0";"154";"0";"9911"
"05.04.2024, 10:40";"1712313602";"175";"8";"17";"160";"74";"114";"0";"9";"0";"158";"0";"9911"
"05.04.2024, 10:50";"1712314201";"173";"9";"18";"162";"74";"142";"0";"0";"0";"163";"0";"9911"
"05.04.2024, 11:00";"1712314801";"167";"9";"22";"164";"74";"174";"0";"2";"0";"158";"0";"9911"
"05.04.2024, 11:10";"1712315401";"170";"9";"20";"164";"73";"179";"0";"5";"0";"161";"0";"9911"
"05.04.2024, 11:20";"1712316001";"160";"8";"17";"166";"74";"154";"0";"0";"0";"172";"0";"9911"
"05.04.2024, 11:30";"1712316601";"164";"7";"16";"170";"71";"309";"0";"0";"0";"180";"0";"9911"
"05.04.2024, 11:40";"1712317201";"171";"8";"19";"170";"70";"424";"7";"0";"0";"164";"0";"9911"
"05.04.2024, 11:50";"1712317801";"180";"9";"17";"170";"71";"124";"0";"0";"0";"162";"0";"9911"
"05.04.2024, 12:00";"1712318401";"179";"9";"17";"170";"71";"60";"0";"0";"0";"165";"0";"9918"
"05.04.2024, 12:10";"1712319001";"182";"8";"17";"171";"71";"137";"0";"1";"0";"167";"0";"9918"
"05.04.2024, 12:20";"1712319601";"177";"8";"17";"171";"70";"132";"0";"0";"0";"160";"0";"9918"
"05.04.2024, 12:30";"1712320201";"180";"8";"15";"170";"70";"139";"0";"8";"0";"165";"0";"9918"
"05.04.2024, 12:40";"1712320801";"186";"10";"19";"172";"67";"208";"0";"9";"0";"165";"0";"9918"
"05.04.2024, 12:50";"1712321401";"189";"11";"25";"175";"64";"141";"0";"0";"0";"172";"0";"9918"
"05.04.2024, 13:00";"1712322001";"189";"16";"33";"176";"64";"201";"0";"0";"0";"167";"0";"9911"
"05.04.2024, 13:10";"1712322601";"189";"14";"27";"175";"65";"130";"0";"0";"0";"171";"0";"9911"
"05.04.2024, 13:20";"1712323201";"192";"13";"26";"175";"66";"154";"0";"0";"0";"170";"0";"9911"
"05.04.2024, 13:30";"1712323801";"192";"13";"28";"176";"65";"82";"0";"0";"0";"168";"0";"9911"
"05.04.2024, 13:40";"1712324401";"198";"14";"30";"178";"65";"62";"0";"0";"0";"174";"0";"9911"
"05.04.2024, 13:50";"1712325001";"205";"14";"27";"176";"67";"139";"0";"0";"0";"163";"0";"9911"
"05.04.2024, 14:00";"1712325601";"205";"14";"31";"165";"76";"28";"0";"5";"0";"147";"0";"9923"
"05.04.2024, 14:10";"1712326201";"205";"14";"28";"160";"79";"66";"0";"10";"0";"150";"0";"9923"
"05.04.2024, 14:20";"1712326801";"204";"9";"16";"159";"80";"168";"0";"10";"0";"157";"0";"9923"
"05.04.2024, 14:30";"1712327401";"200";"8";"16";"159";"80";"214";"0";"9";"0";"159";"0";"9923"
"05.04.2024, 14:40";"1712328001";"192";"8";"17";"160";"78";"511";"7";"0";"0";"162";"0";"9923"
"05.04.2024, 14:50";"1712328601";"198";"10";"20";"163";"77";"669";"8";"0";"0";"164";"0";"9923"
"05.04.2024, 15:00";"1712329202";"203";"8";"18";"166";"76";"723";"8";"0";"0";"166";"0";"9925"
"05.04.2024, 15:10";"1712329801";"205";"7";"19";"168";"75";"412";"4";"0";"0";"167";"0";"9925"
"05.04.2024, 15:20";"1712330401";"201";"7";"14";"170";"75";"1,157";"10";"0";"0";"165";"0";"9925"
"05.04.2024, 15:30";"1712331001";"196";"6";"13";"170";"75";"1,127";"9";"0";"0";"169";"0";"9925"
"05.04.2024, 15:40";"1712331601";"198";"6";"13";"171";"73";"794";"6";"0";"0";"165";"0";"9925"
"05.04.2024, 15:50";"1712332201";"203";"7";"16";"171";"73";"518";"8";"0";"0";"164";"0";"9925"
"05.04.2024, 16:00";"1712332801";"202";"6";"15";"171";"74";"468";"10";"0";"0";"166";"0";"9927"
"05.04.2024, 16:10";"1712333401";"195";"6";"12";"172";"73";"335";"2";"0";"0";"168";"0";"9927"
"05.04.2024, 16:20";"1712334001";"187";"6";"10";"172";"74";"470";"8";"0";"0";"166";"0";"9927"
"05.04.2024, 16:30";"1712334601";"184";"5";"10";"172";"74";"757";"10";"0";"0";"167";"0";"9927"
"05.04.2024, 16:40";"1712335201";"185";"5";"8";"174";"72";"685";"7";"0";"0";"166";"0";"9927"
"05.04.2024, 16:50";"1712335801";"192";"7";"13";"176";"68";"464";"5";"0";"0";"168";"0";"9927"
"05.04.2024, 17:00";"1712336401";"198";"7";"18";"177";"68";"209";"0";"0";"0";"168";"0";"9934"
"05.04.2024, 17:10";"1712337001";"201";"7";"15";"177";"67";"233";"0";"0";"0";"168";"0";"9934"
"05.04.2024, 17:20";"1712337601";"194";"7";"13";"177";"67";"157";"0";"0";"0";"165";"0";"9934"
"05.04.2024, 17:30";"1712338201";"199";"6";"11";"175";"68";"89";"0";"0";"0";"163";"0";"9934"
"05.04.2024, 17:40";"1712338801";"196";"6";"11";"173";"69";"51";"0";"0";"0";"161";"0";"9934"
"05.04.2024, 17:50";"1712339401";"193";"6";"11";"172";"69";"23";"0";"0";"0";"160";"0";"9934"
"05.04.2024, 18:00";"1712340001";"194";"6";"11";"171";"70";"16";"0";"0";"0";"158";"0";"9939"
"05.04.2024, 18:10";"1712340601";"190";"5";"9";"168";"71";"8";"0";"0";"0";"154";"0";"9939"